Regional Weather Roundup
Issued by NWS

Home | Current Version | Previous Version | Graphics & Text | Print | Product List | Glossary On
Versions: 1 2 3 4 5 6 7 8 9 10 11 12 13 14 15 16 17 18 19 20 21 22 23 24 25 26 27 28 29 30 31 32 33 34 35 36 37 38 39 40 41 42 43 44 45 46 47 48 49 50
000
ASUS43 KMKX 031021
RWRWI

WISCONSIN REGIONAL WEATHER ROUNDUP
NATIONAL WEATHER SERVICE MILWAUKEE/SULLIVAN WI
500 AM CDT SUN MAY 03 2015

NOTE: "FAIR" INDICATES FEW OR NO CLOUDS BELOW 12,000 FEET WITH NO
SIGNIFICANT WEATHER AND/OR OBSTRUCTIONS TO VISIBILITY.

WIZ001-002-006>008-014>016-023>028-031100-
NORTHWEST WISCONSIN

CITY           SKY/WX    TMP DP  RH WIND       PRES   REMARKS
SUPERIOR ARPT  CLOUDY    43  41  93 CALM      29.71F
ASHLAND        MOCLDY    64  51  62 SW13G21   29.73R
HAYWARD        PTCLDY    61  49  64 SW10      29.78R
SIREN          MOCLDY    60  50  70 SW7       29.77S
CUMBERLAND     CLEAR     54  46  76 S8        29.79R
RICE LAKE      CLEAR     54  47  78 S6        29.81S
CHETEK         CLEAR     54  48  80 SE5       29.80S
LADYSMITH      CLEAR     55  49  79 S6        29.81S
EAU CLAIRE     CLEAR     59  48  67 S8        29.79S
MENOMONIE      CLEAR     59  49  68 S10       29.80S
NEW RICHMOND   PTCLDY    51  47  83 CALM      29.80R
OSCEOLA        PTCLDY    57  50  77 S7        29.81S
$$

WIZ003>005-009-010-017-018-031100-
NORTH CENTRAL WISCONSIN

CITY           SKY/WX    TMP DP  RH WIND       PRES   REMARKS
MANITOWISH WTR CLEAR     56  49  78 S7        29.80R
ARBOR VITAE    CLEAR     57  49  76 SW6       29.81S
WOODRUFF       CLEAR     57  49  76 SW6       29.81S
RHINELANDER    CLEAR     56  48  74 SW7       29.84R
EAGLE RIVER    CLEAR     56  47  69 S3        29.81S
LAND O LAKES   CLEAR     57  48  72 S5        29.81S
PHILLIPS       MOCLDY    56  49  76 SW7       29.80S
TOMAHAWK       CLEAR     51  47  85 CALM      29.83F
MEDFORD        CLEAR     55  49  79 S12       29.83S
MERRILL        CLEAR     55  49  80 SW5       29.84S
$$

WIZ029-030-035-036-043>047-031100-
CENTRAL WISCONSIN

CITY           SKY/WX    TMP DP  RH WIND       PRES   REMARKS
WAUSAU         CLEAR     57  49  74 S10       29.83S
MOSINEE        CLEAR     52  48  87 S8        29.87S
MARSHFIELD     CLEAR     50  46  86 S8        29.84F
STEVENS POINT  CLEAR     51  46  81 S5        29.87S
WAUPACA        CLEAR     54  46  75 S5        29.88S
WAUTOMA        PTCLDY    47  42  82 CALM      29.89S
WISC RAPIDS    CLEAR     53  46  77 S5        29.87S
CAMP DOUGLAS   PTCLDY    57  53  89 S8        29.85F
$$

WIZ011>013-019>022-031-037>040-048>050-031100-
NORTHEAST WISCONSIN

CITY           SKY/WX    TMP DP  RH WIND       PRES   REMARKS
ANTIGO         CLEAR     50  46  84 S5        29.86S
SHAWANO        CLEAR     57  45  63 CALM      29.87R
OCONTO         CLEAR     48  44  84 SW3       29.86S
STURGEON BAY   CLEAR     55  45  67 S8        29.89S
GREEN BAY      CLEAR     56  47  71 S6        29.88S
MANITOWOC      CLEAR     51  44  77 CALM      29.90S
APPLETON       CLEAR     54  45  71 S6        29.89F
CLINTONVILLE   CLEAR     50  43  76 S5        29.87R
OSHKOSH        PTCLDY    54  46  74 S7        29.89S
$$

WIZ032>034-041-042-053>061-031100-
SOUTHWEST WISCONSIN

CITY           SKY/WX    TMP DP  RH WIND       PRES   REMARKS
LA CROSSE      PTCLDY    59  52  77 SE9       29.83F
SPARTA         MOCLDY    50  46  86 CALM      29.86F
VIROQUA        MOCLDY    57  49  75 S9        29.86F
BOSCOBEL       PTCLDY    62  49  62 SW5       29.87F
PRAIRIE DU CHI MOCLDY    61  47  58 CALM      29.86S
PLATTEVILLE    MOCLDY    58  50  74 S15       29.90F
$$

WIZ056-057-062-063-064-067-068-031100-
SOUTH CENTRAL WISCONSIN

CITY           SKY/WX    TMP DP  RH WIND       PRES   REMARKS
REEDSBURG      MOCLDY    58  49  73 S9        29.88S
BARABOO/DELLS  NOT AVBL
LONE ROCK      MOCLDY    59  49  69 CALM      29.89S
MINERAL POINT  CLOUDY    57  50  77 S9        29.92R
MADISON        PTCLDY    59  48  67 S6        29.91S
MIDDLETON      MOCLDY    59  46  61 SW3       29.91S
WATERTOWN      CLOUDY    57  48  73 CALM      29.91F
MONROE         PTCLDY    57  48  72 S13       29.92S
JANESVILLE     DRIZZLE   61  45  55 S8        29.93S
$$

WIZ051-052-058>065-066-070>072-031100-
SOUTHEAST WISCONSIN

CITY           SKY/WX    TMP DP  RH WIND       PRES   REMARKS
MILWAUKEE      MOCLDY    59  40  49 SW8       29.94R
WAUKESHA       CLOUDY    55  43  62 S5        29.95S
MILWAUKEE/TIMM CLOUDY    59  43  55 S5        29.94S
RACINE         CLOUDY    58  41  53 SW7       29.97R
BURLINGTON     PTCLDY    52  42  69 CALM      29.95S
KENOSHA        CLOUDY    55  44  66 SW5       29.96R
FOND DU LAC    MOCLDY    56  47  71 S7        29.91R
SHEBOYGAN      PTCLDY    54  45  71 SW6       29.91S
WEST BEND      PTCLDY    54  43  66 S3        29.92S
JUNEAU         CLOUDY    53  46  77 SE3       29.92F
$$

LSZ147-162-031100-
LAKE SUPERIOR

STATION/POSITION TIME  TEMP    WIND        PRES    WAVE
                       AIR SEA DIR/SP/G            HT/PER
                 (UTC) (F)     (DEG/KT/KT) (MB)    (FT/S)
W MID LAKE BUOY  0950   45 35  190/ 14/ 16 1005.6S   1/ 3
DEVILS ISLAND    1000          240/  8/  8 1006.1R
PORT WING        0900   41     180/  3/  4 1005.8
SAXON HARBOR     0940   65     190/ 13/ 19 1005.8S
$$

LMZ867-665-643>646-031100-
LAKE MICHIGAN

STATION/POSITION TIME  TEMP    WIND        PRES    WAVE
                       AIR SEA DIR/SP/G            HT/PER
                 (UTC) (F)     (DEG/KT/KT) (MB)    (FT/S)
CHAMBERS ISLAND  0900   59     170/  5/ 13 1011.2S
NORTHPORT PIER   0900   59     190/  3/ 10 1010.8S
SISTER BAY       0902   64     220/ 13/ 16   N/A
KEWAUNEE LAKESHO 0900   58     260/  9/ 10 1011.2R
SHEBOYGAN LAKESH 1000   56     190/  7/  7 1013.2R
PORT WASHINGTON  0940   53     170/  3/  4 1013.9S
ATWATER BUOY     1000   51     160/  6/  8 1015.0R
MILWAUKEE LAKESH 1000   62     240/  8/  9   N/A
KENOSHA   LAKESH 1000   59     180/  6/  6 1014.2S
$$

TC  - TEMPERATURE IN CELSIUS
VSB - VISIBILITY IN STATUTE MILES
WCI - WIND CHILL INDEX
HX  - HEAT INDEX



USA.gov is the U.S. government's official web portal to all federal, state and local government web resources and services.